Terminal Aerodrome Forecast
Issued by NWS

Home | Current Version | Previous Version | Graphics & Text | Print | Product List | Glossary On
Versions: 1 2 3 4 5 6 7 8 9 10 11 12 13 14 15 16 17 18 19 20 21 22 23 24 25 26 27 28 29 30 31 32 33
000
FTUS45 KGGW 031700
TAFGDV
TAF
KGDV 031720Z 0318/0418 14006KT 6SM FU SCT200
     FM032100 13008KT 6SM FU BKN070
     FM040300 12006KT 6SM FU SCT200
      AMD LTD TO CLD VIS AND WIND=

USA.gov is the U.S. government's official web portal to all federal, state and local government web resources and services.